Date,TemperatureHighF,TemperatureAvgF,TemperatureLowF,DewpointHighF,DewpointAvgF,DewpointLowF,HumidityHigh,HumidityAvg,HumidityLow,PressureMaxIn,PressureMinIn,WindSpeedMaxMPH,WindSpeedAvgMPH,GustSpeedMaxMPH,PrecipitationSumIn
2013-2-1,82.0,74.6,70.7,65.8,62.9,58.8,78,67,53,29.78,28.12,8,6,21,0.00
2013-2-2,81.9,74.7,70.9,65.6,63.1,60.1,76,68,52,29.73,28.33,8,6,19,0.00
2013-2-3,80.8,72.9,65.5,62.3,60.6,58.9,86,66,52,29.85,28.75,8,4,17,0.00
2013-2-4,73.6,72.7,71.1,66.2,61.2,60.4,84,67,65,29.66,28.93,11,7,24,0.00
2013-2-5,80.8,74.4,70.5,65.8,62.9,58.7,83,68,54,29.89,28.38,10,7,21,0.00
2013-2-6,79.3,73.2,70.2,69.7,66.4,61.9,84,79,66,29.85,28.56,9,5,14,0.06
2013-2-7,80.6,74.8,72.0,70.3,68.2,66.2,85,80,70,30.14,29.10,9,5,19,0.04
2013-2-8,83.5,76.9,72.0,68.5,67.0,64.4,85,72,58,30.03,29.32,11,4,16,5.24
2013-2-9,82.4,74.7,70.2,68.4,66.0,63.1,85,75,61,29.93,28.92,9,5,19,0.00
2013-2-10,80.4,74.4,71.1,71.1,66.7,63.6,87,77,66,29.86,28.68,10,7,23,0.01
2013-2-11,79.3,73.0,70.2,69.2,65.4,62.2,88,77,68,29.95,28.91,10,7,21,0.06
2013-2-12,77.9,72.4,69.4,65.2,61.4,55.8,81,68,60,29.84,28.43,10,6,19,0.00
2013-2-13,77.9,71.5,68.9,61.8,59.6,55.2,77,66,54,29.69,28.55,9,5,17,0.00
2013-2-14,79.5,73.3,69.6,64.5,61.3,56.9,77,66,56,29.97,28.43,8,6,17,0.00
2013-2-15,71.1,71.1,70.9,63.5,63.1,63.0,77,76,76,29.46,29.18,7,7,18,0.00
2013-2-16,79.2,72.0,71.1,65.0,63.0,60.8,76,74,57,29.89,28.85,14,8,31,0.04
2013-2-17,79.3,73.9,69.1,66.5,63.4,59.5,85,70,57,29.83,28.67,13,10,30,0.02
2013-2-18,80.6,74.0,69.4,65.8,62.5,58.6,85,68,55,30.01,28.56,13,9,34,0.00
2013-2-19,78.3,72.6,67.5,66.4,63.3,58.0,90,73,59,29.76,28.17,12,9,25,0.12
2013-2-20,80.1,74.0,70.5,68.4,65.1,62.1,85,74,62,30.00,28.29,11,8,24,0.01
2013-2-21,77.7,72.6,69.6,70.1,66.6,62.6,91,82,73,29.68,28.59,10,7,24,0.18
2013-2-22,79.2,73.1,70.2,69.2,67.0,65.1,90,81,69,30.08,28.72,11,8,24,0.14
2013-2-23,80.2,73.8,70.3,69.9,66.1,63.7,87,77,64,29.90,28.53,10,7,24,0.05
2013-2-24,79.9,75.2,71.4,67.3,64.3,62.1,75,69,60,29.78,28.74,10,8,24,0.01
2013-2-25,81.0,75.9,72.7,68.1,66.7,65.3,84,74,62,29.50,28.56,14,8,22,0.02
2013-2-26,80.1,74.9,69.6,69.5,67.7,65.1,92,79,65,29.50,27.72,17,8,32,0.17
2013-2-27,80.8,75.7,71.2,68.7,66.8,64.9,91,74,61,29.59,28.40,13,8,21,0.02
2013-2-28,81.3,73.6,71.2,69.3,63.9,61.0,86,72,62,29.60,28.57,11,8,21,5.94